Stations météo

réclame
Mon MeteoGroup
Bolzano, Italie (16020): Température de l'air & dewpoint: 12.02.2018 06:00:00 - 18.02.2018 06:00:00 (CET)Bolzano, Italie (16020): Vitesse du vent: 12.02.2018 06:00:00 - 18.02.2018 06:00:00 (CET)Bolzano, Italie (16020): Direction du vent: 12.02.2018 06:00:00 - 18.02.2018 06:00:00 (CET)Bolzano, Italie (16020): reduced air pressure: 12.02.2018 06:00:00 - 18.02.2018 06:00:00 (CET)Bolzano, Italie (16020): visibility: 12.02.2018 06:00:00 - 18.02.2018 06:00:00 (CET)Bolzano, Italie (16020): Quantités de précipitations: 12.02.2018 06:00:00 - 18.02.2018 06:00:00 (CET)
Date & Time tt [°C] td [°C] ff [km/h] ff [knt] dd ppp [hPa] vv [km] rr [mm]
18.02.2018 06:00:00 - - - - - - - -
18.02.2018 05:00:00 - - - - - - - -
18.02.2018 04:00:00 2,4 2,3 0 0 N 1019,0 - -
18.02.2018 03:00:00 - - - - - - - -
18.02.2018 02:00:00 - - - - - - - -
18.02.2018 01:00:00 4,2 0,6 2 1 NNE 1019,3 - -
18.02.2018 00:00:00 - - - - - - - -
17.02.2018 23:00:00 4,0 -1,0 4 2 S - 10 -
17.02.2018 22:00:00 3,6 -1,1 0 0 N 1018,4 10 -
17.02.2018 21:00:00 5,0 -2,0 2 1 - - 10 -
17.02.2018 20:00:00 6,0 -2,0 2 1 - - 10 -
17.02.2018 19:00:00 5,5 -1,8 4 2 - 1017,9 10 0,0
17.02.2018 18:00:00 8,0 -3,0 2 1 - - 10 -
17.02.2018 17:00:00 9,0 -2,0 4 2 - - 10 -
17.02.2018 16:00:00 9,1 -3,4 4 2 - 1017,6 10 -
17.02.2018 15:00:00 8,0 -2,0 4 2 S - 10 -
17.02.2018 14:00:00 8,0 -2,0 0 0 N - 10 -
17.02.2018 13:00:00 7,5 -2,9 4 2 WSW 1020,7 10 0,0
17.02.2018 12:00:00 6,0 -2,0 4 2 SE - 10 -
17.02.2018 11:00:00 4,0 -2,0 0 0 N - 10 -
17.02.2018 10:00:00 3,1 -2,7 5 3 - 1024,5 10 -
17.02.2018 09:00:00 -2,0 -3,0 0 0 N - 10 -
17.02.2018 08:00:00 -3,0 -4,0 5 3 - - 10 -
17.02.2018 07:00:00 -3,9 -5,4 0 0 N 1026,2 10 0,0
17.02.2018 06:00:00 - - - - - - - -
17.02.2018 05:00:00 - - - - - - - -
17.02.2018 04:00:00 -3,0 -4,6 0 0 N 1027,4 - -
17.02.2018 03:00:00 - - - - - - - -
17.02.2018 02:00:00 - - - - - - - -
17.02.2018 01:00:00 -1,7 -5,0 2 1 N 1028,0 - 0,0
17.02.2018 00:00:00 - - - - - - - -
16.02.2018 23:00:00 1,0 -4,0 0 0 N - 10 -
16.02.2018 22:00:00 -0,3 -4,9 4 2 NNE 1026,7 10 -
16.02.2018 21:00:00 1,0 -4,0 5 3 NNW - 10 -
16.02.2018 20:00:00 3,0 -4,0 5 3 - - 10 -
16.02.2018 19:00:00 3,6 -5,6 5 3 - 1024,3 10 0,0
16.02.2018 18:00:00 6,0 -6,0 8 4 SE - 10 -
16.02.2018 17:00:00 9,0 -6,0 9 5 SSW - 10 -
16.02.2018 16:00:00 10,9 -7,2 5 3 S 1021,5 10 -
16.02.2018 15:00:00 10,0 -7,0 9 5 S - 10 -
16.02.2018 14:00:00 10,0 -7,0 5 3 - - 10 -
16.02.2018 13:00:00 8,2 -8,5 5 3 SSE 1023,3 17 0,0
16.02.2018 12:00:00 5,0 -8,0 15 8 - - 10 -
16.02.2018 11:00:00 3,0 -9,0 2 1 - - 10 -
16.02.2018 10:00:00 2,8 -9,3 2 1 - 1026,4 10 -
16.02.2018 09:00:00 -3,0 -7,0 4 2 - - 10 -
16.02.2018 08:00:00 -5,0 -8,0 4 2 - - 10 -
16.02.2018 07:00:00 -5,1 -8,0 4 2 - 1026,9 10 0,0
16.02.2018 06:00:00 - - - - - - - -
16.02.2018 05:00:00 - - - - - - - -
16.02.2018 04:00:00 -3,5 -8,7 4 2 NNE 1026,7 - -
16.02.2018 03:00:00 - - - - - - - -
16.02.2018 02:00:00 - - - - - - - -
16.02.2018 01:00:00 -3,8 -8,4 4 2 N 1027,1 - 0,0
16.02.2018 00:00:00 - - - - - - - -
15.02.2018 23:00:00 -3,0 -9,0 0 0 N - 10 -
15.02.2018 22:00:00 -2,8 -9,3 4 2 - 1026,6 10 -
15.02.2018 21:00:00 -2,0 -10,0 0 0 N - 10 -
15.02.2018 20:00:00 -1,0 -11,0 2 1 - - 10 -
15.02.2018 19:00:00 -1,1 -11,6 0 0 N 1025,3 10 0,0
15.02.2018 18:00:00 2,0 -15,0 0 0 N - 10 -
15.02.2018 17:00:00 6,0 -16,0 2 1 - - 10 -
15.02.2018 16:00:00 5,7 -16,3 4 2 - 1023,4 10 -
15.02.2018 15:00:00 4,0 -17,0 4 2 - - 10 -
15.02.2018 14:00:00 3,0 -16,0 2 1 - - 10 -
15.02.2018 13:00:00 3,2 -16,9 2 1 - 1025,2 10 0,0
15.02.2018 12:00:00 1,0 -15,0 0 0 N - 10 -
15.02.2018 11:00:00 0,0 -15,0 2 1 - - 10 -
15.02.2018 10:00:00 -0,5 -14,3 0 0 N 1026,4 10 -
15.02.2018 09:00:00 -2,0 -13,0 0 0 N - 10 -
15.02.2018 08:00:00 -4,0 -14,0 0 0 N - 10 -
15.02.2018 07:00:00 -3,9 -14,6 0 0 N 1025,1 10 0,0
15.02.2018 06:00:00 - - - - - - - -
15.02.2018 05:00:00 - - - - - - - -
15.02.2018 04:00:00 -4,2 -14,1 5 3 SE 1023,6 - -
15.02.2018 03:00:00 - - - - - - - -
15.02.2018 02:00:00 - - - - - - - -
15.02.2018 01:00:00 -2,8 -14,8 4 2 SE 1022,4 - 0,0
15.02.2018 00:00:00 - - - - - - - -
14.02.2018 23:00:00 -4,0 -12,0 4 2 - - 10 -
14.02.2018 22:00:00 -2,7 -10,4 0 0 N 1021,0 10 -
14.02.2018 21:00:00 -2,0 -9,0 4 2 - - 10 -
14.02.2018 20:00:00 12,0 -10,0 4 2 - - 10 -
14.02.2018 19:00:00 -0,1 -10,0 4 2 - 1018,0 10 0,0
14.02.2018 18:00:00 3,0 -12,0 4 2 - - 10 -
14.02.2018 17:00:00 6,0 -10,0 4 2 - - 10 -
14.02.2018 16:00:00 7,9 -11,1 4 2 - 1014,6 10 -
14.02.2018 15:00:00 7,0 -11,0 0 0 N - 10 -
14.02.2018 14:00:00 7,0 -11,0 4 2 - - 10 -
14.02.2018 13:00:00 5,5 -11,5 4 2 - 1015,6 10 0,0
14.02.2018 12:00:00 4,0 -9,0 0 0 N - 10 -
14.02.2018 11:00:00 2,0 -10,0 0 0 N - 10 -
14.02.2018 10:00:00 1,1 -10,5 5 3 - 1017,3 10 -
14.02.2018 09:00:00 -3,0 -9,0 4 2 - - 10 -
14.02.2018 08:00:00 -4,0 -9,0 0 0 N - 10 -
14.02.2018 07:00:00 -3,3 -10,7 0 0 N 1016,5 10 0,0
14.02.2018 06:00:00 - - - - - - - -
14.02.2018 05:00:00 - - - - - - - -
14.02.2018 04:00:00 -1,0 -13,8 5 3 NNW 1014,8 - -
14.02.2018 03:00:00 - - - - - - - -
14.02.2018 02:00:00 - - - - - - - -
14.02.2018 01:00:00 0,1 -12,1 4 2 N 1014,4 - 0,0
14.02.2018 00:00:00 - - - - - - - -
13.02.2018 23:00:00 -1,0 -9,0 0 0 N - 10 -
13.02.2018 22:00:00 -1,5 -8,6 0 0 N 1013,9 10 -
13.02.2018 21:00:00 -1,0 -9,0 0 0 N - 10 -
13.02.2018 20:00:00 0,0 -8,0 4 2 - - 10 -
13.02.2018 19:00:00 0,5 -9,8 4 2 - 1012,4 10 0,0
13.02.2018 18:00:00 3,0 -12,0 4 2 - - 10 -
13.02.2018 17:00:00 5,0 -11,0 8 4 S - 10 -
13.02.2018 16:00:00 7,5 -13,1 8 4 WSW 1010,9 10 -
13.02.2018 15:00:00 8,0 -13,0 4 2 - - 10 -
13.02.2018 14:00:00 8,0 -14,0 5 3 - - 10 -
13.02.2018 13:00:00 7,1 -14,7 4 2 - 1013,6 10 0,0
13.02.2018 12:00:00 5,0 -14,0 13 7 NNW - 10 -
13.02.2018 11:00:00 5,0 -15,0 15 8 NNW - 10 -
13.02.2018 10:00:00 4,1 -13,4 4 2 - 1016,3 10 -
13.02.2018 09:00:00 2,0 -9,0 0 0 N - 10 -
13.02.2018 08:00:00 0,0 -9,0 2 1 - - 10 -
13.02.2018 07:00:00 0,5 -9,0 4 2 - 1016,3 10 0,0
13.02.2018 06:00:00 - - - - - - - -
13.02.2018 05:00:00 - - - - - - - -
13.02.2018 04:00:00 2,0 -10,6 4 2 NNW 1015,8 - -
13.02.2018 03:00:00 - - - - - - - -
13.02.2018 02:00:00 - - - - - - - -
13.02.2018 01:00:00 4,7 -14,7 11 6 NNE 1016,1 - 0,0
13.02.2018 00:00:00 - - - - - - - -
12.02.2018 23:00:00 6,0 -12,0 18 10 NNW - 10 -
12.02.2018 22:00:00 5,4 -12,7 15 8 N 1015,2 10 -
12.02.2018 21:00:00 6,0 -11,0 13 7 N - 10 -
12.02.2018 20:00:00 6,0 -10,0 13 7 N - 10 -
12.02.2018 19:00:00 5,8 -10,8 9 5 N 1013,1 16 -
12.02.2018 18:00:00 7,0 -11,0 11 6 N - 10 -
12.02.2018 17:00:00 8,0 -9,0 11 6 - - 10 -
12.02.2018 16:00:00 6,6 -0,4 4 2 N 1011,3 9 -
12.02.2018 15:00:00 5,0 1,0 2 1 - - 9 -
12.02.2018 14:00:00 4,0 1,0 2 1 - - 9 -
12.02.2018 13:00:00 2,3 1,3 4 2 - 1012,5 5 -
12.02.2018 12:00:00 2,0 1,0 2 1 - - 5 -
12.02.2018 11:00:00 1,0 1,0 2 1 - - 4,0 -
12.02.2018 10:00:00 1,0 0,5 2 1 - 1012,1 4,0 -
12.02.2018 09:00:00 1,0 0,0 2 1 - - 4,0 -
12.02.2018 08:00:00 0,0 0,0 5 3 - - 1,0 -
12.02.2018 07:00:00 0,2 0,2 2 1 - 1011,4 1,0 0,0
12.02.2018 06:00:00 - - - - - - - -

tt = Température de l'air
td = dewpoint
ff = Vitesse du vent
dd = Direction du vent
ppp = reduced air pressure
vv = visibility
rr = Quantités de précipitations

stations d'obs. à proximité